GW4018 Weather Reports


Display with metric or nautical units.
time (UTC)temp
F
wind
direction
speed
MPH
gust
MPH
rain 1hr
in
rain 24hr
in
rain mn
in
humidity
%
barometer
mb
20260504201559 55 14 7.0 21.0 0.00 0.00 0.00 33 1014.8
20260504194555 55 352 9.0 24.0 0.00 0.00 0.00 32 1014.9
20260504193055 55 42 10.0 24.0 0.00 0.00 0.00 33 1014.9
20260504191600 56 17 8.0 24.0 0.00 0.00 0.00 33 1014.9
20260504190110 55 62 10.0 22.0 0.00 0.00 0.00 34 1015.0
20260504184613 57 360 9.0 21.0 0.00 0.00 0.00 33 1015.0
20260504183107 55 46 9.0 23.0 0.00 0.00 0.00 36 1015.1
20260504181556 57 9 8.0 19.0 0.00 0.00 0.00 33 1015.1
20260504180052 56 28 10.0 21.0 0.00 0.00 0.00 35 1015.3
20260504174604 57 34 9.0 24.0 0.00 0.00 0.00 36 1015.2
20260504173102 54 42 9.0 21.0 0.00 0.00 0.00 38 1015.2
20260504171554 54 29 13.0 20.0 0.00 0.00 0.00 39 1015.2
20260504081552 49 88 9.0 18.0 0.00 0.00 0.00 50 1015.1
20260504080109 50 84 8.0 17.0 0.00 0.00 0.00 48 1014.9
20260504044559 58 100 7.0 13.0 0.00 0.01 0.00 36 1009.4
20260504043055 59 85 9.0 14.0 0.00 0.01 0.00 36 1008.8
20260504041553 59 78 8.0 11.0 0.00 0.01 0.00 36 1008.5
20260504040103 60 84 7.0 13.0 0.00 0.01 0.00 35 1008.3
20260504034559 61 88 13.0 18.0 0.00 0.01 0.00 33 1008.0
20260504033126 62 80 10.0 14.0 0.00 0.01 0.00 30 1007.6
20260504031551 63 82 8.0 12.0 0.00 0.01 0.00 27 1007.3
20260504030051 63 104 2.0 6.0 0.00 0.01 0.00 25 1006.9
20260504024557 65 93 4.0 7.0 0.00 0.01 0.00 24 1006.9
20260504023102 65 83 3.0 6.0 0.00 0.01 0.00 26 1006.9
20260504021553 67 81 2.0 8.0 0.00 0.01 0.00 25 1006.9
20260504020101 69 78 4.0 9.0 0.00 0.01 0.00 25 1006.8
20260504014552 71 73 4.0 13.0 0.00 0.01 0.00 22 1006.7
20260504013105 72 67 8.0 14.0 0.00 0.01 0.00 23 1006.8
20260504011553 72 57 10.0 14.0 0.00 0.01 0.00 21 1006.8
20260504010112 74 39 5.0 11.0 0.00 0.01 0.00 19 1006.8
20260504004614 76 30 4.0 13.0 0.00 0.01 0.00 18 1006.8
20260504003055 75 335 6.0 14.0 0.00 0.01 0.00 17 1007.0
20260504001607 76 98 5.0 13.0 0.00 0.01 0.00 17 1007.1
20260504000052 76 18 5.0 14.0 0.00 0.01 0.00 16 1007.1
20260503234554 76 9 8.0 15.0 0.00 0.01 0.00 17 1007.4
20260503233052 75 46 5.0 12.0 0.00 0.01 0.00 16 1007.4
20260503231550 76 340 7.0 18.0 0.00 0.01 0.00 17 1007.5
20260503230100 75 360 7.0 13.0 0.00 0.01 0.00 16 1007.6
20260503224554 75 337 9.0 19.0 0.00 0.01 0.00 17 1007.8
20260503223058 75 5 7.0 21.0 0.00 0.01 0.00 17 1007.9
20260503221555 75 13 7.0 18.0 0.00 0.01 0.00 17 1008.0
20260503220057 75 13 5.0 14.0 0.00 0.01 0.00 17 1008.2
20260503214553 75 16 9.0 17.0 0.00 0.01 0.00 18 1008.4
20260503213107 74 360 8.0 15.0 0.00 0.01 0.00 18 1008.7
20260503211554 74 44 4.0 17.0 0.00 0.01 0.00 18 1009.0
20260503210100 74 13 10.0 20.0 0.00 0.01 0.00 17 1009.4
20260503204554 73 355 11.0 20.0 0.00 0.01 0.00 18 1009.8
20260503203103 73 9 8.0 18.0 0.00 0.01 0.00 17 1009.9